P/2004 VR8 ( LONEOS )

Japanese version
Home page
Updated on January 20, 2013

---------------------------------------------------------------------

* Profile

Discovery Date November 3, 2004
Magnitude 17.6 mag
Discoverer Lowell Observatory Near-Earth Object Search

* Pictures

* Orbital Elements

Epoch 2005 Aug. 18.0 TT = JDT 2453600.5
T 2005 Sept. 2.51501 TT                                 MPC
q   2.3757060            (2000.0)            P               Q
n   0.09235871     Peri.   63.10073     -0.64711431     -0.68935616
a   4.8471242      Node    71.21605     +0.51836376     -0.71102749
e   0.5098731      Incl.   20.11728     +0.55905463     -0.13866507
P  10.7
From 584 observations 2004 Nov. 3-2006 June 30, mean residual 0".6.

* Finding Charts

* Magnitudes Graph

        m1 = 3.2 + 5 log d + 25.0 log r

---------------------------------------------------------------------

The orbital elements are published on M.P.E.C. 2013-A29.
The charts are made with StellaNavigator Ver.2.0 for Windows (AstroArts / ASCII).
The magnitudes graphs are made with Comet for Windows.

---------------------------------------------------------------------

Copyright(C) Seiichi Yoshida (comet@aerith.net). All rights reserved.